Flag for Germany Weather past 2 weeks in Amberg, Bavaria, Germany

Now
61 °F

Sunny.


Feels Like: 61 °F
Forecast: 43 / 70 °F
Wind: 6 mph from West

Location: Hohenfels


UV Index: 3 (Moderate)

Visibility: N/A


Pressure: 30.07 "Hg

Humidity: 59%

Dew point: 46 °F

Location of AmbergLocation

Historic Weather in Amberg

°F

Amberg temperature yesterday

Maximum temperature yesterday: 63 °F (at 4:58 PM)
Minimum temperature yesterday: 45 °F (at 11:58 PM)
Average temperature yesterday: 53 °F

Past Weeks' High & Low Weather Summary

 TemperatureHumidityPressure
High68 °F (Apr 23, 2:58 PM)100% (Apr 19, 12:58 AM)30.44 "Hg (Apr 19, 12:58 AM)
Low25 °F (Apr 17, 5:58 AM)30% (Apr 17, 3:58 PM)29.67 "Hg (Apr 21, 4:58 PM)
Average47 °F72%30.05 "Hg
* Reported Apr 8 7:58 PM — Apr 23 7:00 PM, Amberg, Weather by CustomWeather, © 2014

Note: Actual official high and low records may vary slightly from our data, if they occured in-between our weather recording intervals... More about our weather records

Advertising

Historic Weather Conditions — Data for Previous 24 hours

 ConditionsComfort  
Time TempWeatherWind HumidityBarometerVisibility
7:00 PM
Apr 23
68 °FSunny.1 mph38%30.06 "HgN/A
5:58 PM68 °FSunny.8 mph38%30.06 "HgN/A
4:58 PM68 °FPartly sunny.1 mph38%30.07 "HgN/A
3:58 PM68 °FSunny.6 mph40%30.08 "HgN/A
2:58 PM68 °FPartly sunny.5 mph40%30.09 "HgN/A
1:58 PM66 °FSunny.1 mph46%30.11 "HgN/A
12:58 PM64 °FPassing clouds.3 mph49%30.11 "HgN/A
11:58 AM64 °FSunny.3 mph52%30.12 "HgN/A
10:58 AM61 °FSunny.6 mph59%30.14 "HgN/A
9:58 AM57 °FSunny.No wind78%30.13 "HgN/A
8:58 AM50 °FSunny.No wind100%30.14 "HgN/A
7:58 AM43 °FSunny.1 mph100%30.14 "HgN/A
7:03 AM39 °FFog.1 mph100%30.11 "Hg1 mi
6:02 AM39 °FFog.1 mph100%30.09 "Hg0 mi
5:04 AM39 °FFog.No wind100%30.08 "Hg2 mi
4:58 AM39 °FFog.1 mph100%30.09 "Hg1 mi
3:58 AM41 °FClear.No wind100%30.09 "HgN/A
2:58 AM41 °FFog.1 mph100%30.09 "Hg2 mi
1:58 AM43 °FClear.No wind93%30.06 "HgN/A
12:58 AM43 °FClear.2 mph100%30.05 "HgN/A
11:58 PM
Apr 22
45 °FClear.2 mph100%30.05 "HgN/A
10:58 PM46 °FClear.2 mph100%30.04 "HgN/A
9:58 PM50 °FClear.2 mph94%30.01 "HgN/A
8:58 PM50 °FSunny.5 mph100%30.00 "HgN/A
Weather by CustomWeather, © 2014

See weather overview